Location: site
(53.0000°N, 23.0500°E)
Time: 17:32:25
(UTC+01:00)

SAOCOM 1-A - Pass Details

Date: 21 January 2020
Orbit: 621 x 623 km, 97.9° (Epoch: 25 February)

Event Time Altitude Azimuth Distance (km) Brightness Sun altitude
Rises 05:06:15 0° 179° (S) 2,894 ? -20.7°
Reaches altitude 10° 05:08:30 10° 185° (S) 1,992 ? -20.4°
Maximum altitude 05:12:42 49° 260° (W) 811 ? -19.8°
Enters shadow 05:13:04 47° 278° (W) 828 ? -19.7°
